| time (UTC) | temp F | wind direction | speed knots | gust knots | rain 1hr in | rain 24hr in | rain mn in | humidity % | barometer mb |
| 20260903011519 | 84 | 180 | 1.7 | 5.2 | 0.00 | 0.00 | 0.00 | 78 | 1016.1 |
| 20260903010519 | 84 | 158 | 2.6 | 6.1 | 0.00 | 0.00 | 0.00 | 77 | 1016.0 |
| 20260903005519 | 84 | 180 | 1.7 | 4.3 | 0.00 | 0.00 | 0.00 | 77 | 1015.9 |
| 20260903004559 | 85 | 203 | 1.7 | 5.2 | 0.00 | 0.00 | 0.00 | 76 | 1015.7 |
| 20260903003519 | 85 | 180 | 1.7 | 5.2 | 0.00 | 0.00 | 0.00 | 75 | 1015.8 |
| 20260903002518 | 85 | 158 | 1.7 | 5.2 | 0.00 | 0.00 | 0.00 | 73 | 1015.6 |
| 20260903001518 | 86 | 225 | 0.9 | 3.5 | 0.00 | 0.00 | 0.00 | 72 | 1015.7 |
| 20260903000522 | 87 | 203 | 1.7 | 4.3 | 0.00 | 0.00 | 0.00 | 70 | 1015.7 |
| 20260902235518 | 87 | 203 | 2.6 | 4.3 | 0.00 | 0.00 | 0.00 | 69 | 1015.8 |
| 20260902234518 | 88 | 225 | 1.7 | 6.1 | 0.00 | 0.00 | 0.00 | 68 | 1015.8 |
| 20260902233558 | 89 | 225 | 2.6 | 5.2 | 0.00 | 0.00 | 0.00 | 66 | 1015.8 |
| 20260902232518 | 89 | 248 | 1.7 | 5.2 | 0.00 | 0.00 | 0.00 | 65 | 1015.7 |
| 20260902231519 | 90 | 270 | 2.6 | 9.6 | 0.00 | 0.00 | 0.00 | 64 | 1015.9 |
| 20260902230518 | 90 | 203 | 1.7 | 4.3 | 0.00 | 0.00 | 0.00 | 63 | 1015.8 |
| 20260902225519 | 91 | 270 | 2.6 | 6.1 | 0.00 | 0.00 | 0.00 | 62 | 1015.9 |
| 20260902224518 | 91 | 225 | 2.6 | 8.7 | 0.00 | 0.00 | 0.00 | 62 | 1015.9 |
| 20260902223518 | 92 | 270 | 3.5 | 7.8 | 0.00 | 0.00 | 0.00 | 61 | 1015.9 |
| 20260902222538 | 92 | 270 | 2.6 | 8.7 | 0.00 | 0.00 | 0.00 | 60 | 1016.0 |
| 20260902221538 | 92 | 248 | 4.3 | 9.6 | 0.00 | 0.00 | 0.00 | 59 | 1016.0 |
| 20260902220538 | 92 | 293 | 4.3 | 9.6 | 0.00 | 0.00 | 0.00 | 59 | 1016.1 |
| 20260902215518 | 93 | 270 | 5.2 | 12.2 | 0.00 | 0.00 | 0.00 | 57 | 1016.1 |
| 20260902214559 | 93 | 270 | 4.3 | 11.3 | 0.00 | 0.00 | 0.00 | 57 | 1016.2 |
| 20260902213538 | 93 | 270 | 4.3 | 12.2 | 0.00 | 0.00 | 0.00 | 56 | 1016.1 |
| 20260902212520 | 93 | 225 | 4.3 | 11.3 | 0.00 | 0.00 | 0.00 | 56 | 1016.1 |
| 20260902211518 | 94 | 248 | 5.2 | 13.9 | 0.00 | 0.00 | 0.00 | 54 | 1016.2 |
| 20260902210518 | 94 | 293 | 5.2 | 12.2 | 0.00 | 0.00 | 0.00 | 55 | 1016.2 |
| 20260902205538 | 94 | 293 | 4.3 | 10.4 | 0.00 | 0.00 | 0.00 | 54 | 1016.3 |
| 20260902204518 | 95 | 315 | 3.5 | 10.4 | 0.00 | 0.00 | 0.00 | 53 | 1016.5 |
| 20260902203518 | 94 | 293 | 5.2 | 11.3 | 0.00 | 0.00 | 0.00 | 51 | 1016.5 |
| 20260902202520 | 95 | 270 | 4.3 | 10.4 | 0.00 | 0.00 | 0.00 | 54 | 1016.7 |
| 20260902201518 | 95 | 270 | 4.3 | 14.8 | 0.00 | 0.00 | 0.00 | 51 | 1016.8 |
| 20260902200518 | 95 | 225 | 3.5 | 11.3 | 0.00 | 0.00 | 0.00 | 53 | 1016.8 |
| 20260902195520 | 94 | 248 | 5.2 | 13.0 | 0.00 | 0.00 | 0.00 | 53 | 1016.9 |
| 20260902194518 | 94 | 225 | 4.3 | 12.2 | 0.00 | 0.00 | 0.00 | 54 | 1017.0 |
| 20260902193538 | 94 | 270 | 4.3 | 10.4 | 0.00 | 0.00 | 0.00 | 54 | 1017.2 |
| 20260902192518 | 94 | 203 | 5.2 | 12.2 | 0.00 | 0.00 | 0.00 | 55 | 1017.1 |
| 20260902191520 | 93 | 225 | 4.3 | 7.0 | 0.00 | 0.00 | 0.00 | 57 | 1017.4 |
| 20260902190519 | 94 | 180 | 5.2 | 12.2 | 0.00 | 0.00 | 0.00 | 53 | 1017.4 |
| 20260902185518 | 94 | 270 | 1.7 | 7.8 | 0.00 | 0.00 | 0.00 | 56 | 1017.5 |
| 20260902184658 | 95 | 248 | 2.6 | 7.8 | 0.00 | 0.00 | 0.00 | 55 | 1017.6 |
| 20260902183520 | 95 | 248 | 2.6 | 7.0 | 0.00 | 0.00 | 0.00 | 60 | 1017.8 |
| 20260902182522 | 94 | 315 | 3.5 | 8.7 | 0.00 | 0.00 | 0.00 | 57 | 1017.8 |
| 20260902181518 | 93 | 293 | 3.5 | 8.7 | 0.00 | 0.00 | 0.00 | 59 | 1017.9 |
| 20260902180558 | 93 | 225 | 3.5 | 9.6 | 0.00 | 0.00 | 0.00 | 58 | 1018.0 |
| 20260902175520 | 93 | 248 | 3.5 | 10.4 | 0.00 | 0.00 | 0.00 | 59 | 1018.2 |
| 20260902174520 | 93 | 225 | 3.5 | 8.7 | 0.00 | 0.00 | 0.00 | 60 | 1018.2 |
| 20260902173519 | 92 | 270 | 4.3 | 12.2 | 0.00 | 0.00 | 0.00 | 60 | 1018.3 |
| 20260902172520 | 92 | 270 | 5.2 | 10.4 | 0.00 | 0.00 | 0.00 | 60 | 1018.4 |
| 20260902171520 | 92 | 270 | 2.6 | 8.7 | 0.00 | 0.00 | 0.00 | 61 | 1018.5 |
| 20260902170518 | 92 | 225 | 3.5 | 8.7 | 0.00 | 0.00 | 0.00 | 60 | 1018.6 |
| 20260902165520 | 91 | 203 | 3.5 | 7.8 | 0.00 | 0.00 | 0.00 | 63 | 1018.6 |
| 20260902164539 | 90 | 248 | 4.3 | 7.8 | 0.00 | 0.00 | 0.00 | 63 | 1018.8 |
| 20260902163519 | 90 | 270 | 3.5 | 7.8 | 0.00 | 0.00 | 0.00 | 65 | 1019.0 |
| 20260902162520 | 90 | 248 | 4.3 | 10.4 | 0.00 | 0.00 | 0.00 | 65 | 1019.1 |
| 20260902161519 | 90 | 293 | 3.5 | 10.4 | 0.00 | 0.00 | 0.00 | 64 | 1019.0 |
| 20260902160519 | 89 | 270 | 3.5 | 8.7 | 0.00 | 0.00 | 0.00 | 65 | 1019.0 |
| 20260902155518 | 89 | 270 | 3.5 | 7.0 | 0.00 | 0.00 | 0.00 | 66 | 1019.0 |
| 20260902154520 | 90 | 270 | 3.5 | 10.4 | 0.00 | 0.00 | 0.00 | 65 | 1018.9 |
| 20260902153520 | 90 | 315 | 3.5 | 7.0 | 0.00 | 0.00 | 0.00 | 66 | 1018.9 |
| 20260902152519 | 89 | 270 | 4.3 | 10.4 | 0.00 | 0.00 | 0.00 | 66 | 1018.7 |
| 20260902151520 | 88 | 270 | 4.3 | 9.6 | 0.00 | 0.00 | 0.00 | 68 | 1018.8 |
| 20260902150540 | 88 | 270 | 3.5 | 7.0 | 0.00 | 0.00 | 0.00 | 69 | 1018.6 |
| 20260902145519 | 87 | 270 | 4.3 | 10.4 | 0.00 | 0.00 | 0.00 | 71 | 1018.7 |
| 20260902144519 | 86 | 270 | 3.5 | 8.7 | 0.00 | 0.00 | 0.00 | 73 | 1018.7 |
| 20260902143519 | 85 | 248 | 3.5 | 10.4 | 0.00 | 0.01 | 0.00 | 72 | 1018.7 |
| 20260902142518 | 84 | 270 | 3.5 | 9.6 | 0.00 | 0.01 | 0.00 | 72 | 1018.6 |
| 20260902141518 | 85 | 270 | 4.3 | 9.6 | 0.00 | 0.01 | 0.00 | 72 | 1018.7 |
| 20260902140519 | 85 | 248 | 2.6 | 7.8 | 0.00 | 0.01 | 0.00 | 74 | 1018.6 |
| 20260902135538 | 84 | 248 | 2.6 | 10.4 | 0.00 | 0.02 | 0.00 | 75 | 1018.5 |
| 20260902134518 | 83 | 270 | 2.6 | 9.6 | 0.00 | 0.03 | 0.00 | 75 | 1018.5 |
| 20260902133518 | 83 | 248 | 2.6 | 7.8 | 0.00 | 0.03 | 0.00 | 77 | 1018.4 |
| 20260902132518 | 82 | 225 | 1.7 | 6.1 | 0.00 | 0.06 | 0.00 | 80 | 1018.4 |
| 20260902131518 | 81 | 248 | 2.6 | 6.1 | 0.00 | 0.06 | 0.00 | 81 | 1018.5 |
| 20260902130518 | 80 | 225 | 1.7 | 6.1 | 0.00 | 0.06 | 0.00 | 82 | 1018.5 |
| 20260902125539 | 79 | 248 | 1.7 | 4.3 | 0.00 | 0.06 | 0.00 | 83 | 1018.5 |
| 20260902124520 | 79 | 248 | 1.7 | 5.2 | 0.00 | 0.06 | 0.00 | 84 | 1018.5 |
| 20260902123518 | 79 | 225 | 0.9 | 4.3 | 0.00 | 0.06 | 0.00 | 84 | 1018.5 |
| 20260902122518 | 78 | 248 | 1.7 | 4.3 | 0.00 | 0.06 | 0.00 | 85 | 1018.5 |
| 20260902121519 | 77 | 225 | 0.9 | 3.5 | 0.00 | 0.06 | 0.00 | 86 | 1018.5 |
| 20260902120518 | 77 | 225 | 1.7 | 7.0 | 0.00 | 0.06 | 0.00 | 87 | 1018.5 |
| 20260902115520 | 76 | 225 | 0.9 | 3.5 | 0.00 | 0.06 | 0.00 | 88 | 1018.5 |
| 20260902114520 | 76 | 248 | 0.9 | 7.0 | 0.00 | 0.06 | 0.00 | 88 | 1018.5 |
| 20260902113518 | 75 | 270 | 0.9 | 1.7 | 0.00 | 0.06 | 0.00 | 88 | 1018.3 |
| 20260902112518 | 75 | 180 | 0.9 | 4.3 | 0.00 | 0.06 | 0.00 | 89 | 1018.3 |
| 20260902111558 | 75 | 225 | 0.9 | 3.5 | 0.00 | 0.06 | 0.00 | 89 | 1018.1 |
| 20260902110538 | 75 | 0.0 | 1.7 | 0.00 | 0.06 | 0.00 | 89 | 1018.1 | |
| 20260902105520 | 75 | 248 | 0.9 | 1.7 | 0.00 | 0.06 | 0.00 | 89 | 1018.0 |
| 20260902104518 | 75 | 0.0 | 2.6 | 0.00 | 0.06 | 0.00 | 89 | 1017.9 | |
| 20260902103520 | 75 | 248 | 0.9 | 2.6 | 0.00 | 0.06 | 0.00 | 89 | 1018.0 |
| 20260902102539 | 75 | 248 | 0.9 | 3.5 | 0.00 | 0.06 | 0.00 | 89 | 1017.9 |
| 20260902101519 | 76 | 225 | 0.9 | 2.6 | 0.00 | 0.06 | 0.00 | 89 | 1017.8 |
| 20260902100539 | 76 | 270 | 0.9 | 3.5 | 0.00 | 0.06 | 0.00 | 89 | 1017.8 |
| 20260902095528 | 76 | 315 | 0.9 | 2.6 | 0.00 | 0.06 | 0.00 | 89 | 1017.8 |
| 20260902094519 | 76 | 248 | 0.9 | 2.6 | 0.00 | 0.06 | 0.00 | 88 | 1017.6 |
| 20260902093518 | 76 | 270 | 0.9 | 2.6 | 0.00 | 0.06 | 0.00 | 88 | 1017.7 |
| 20260902092519 | 77 | 293 | 0.9 | 1.7 | 0.00 | 0.06 | 0.00 | 87 | 1017.8 |
| 20260902091519 | 77 | 293 | 0.9 | 3.5 | 0.00 | 0.06 | 0.00 | 87 | 1017.8 |
| 20260902090519 | 77 | 315 | 0.9 | 3.5 | 0.00 | 0.06 | 0.00 | 88 | 1017.8 |
| 20260902085519 | 77 | 315 | 1.7 | 3.5 | 0.00 | 0.06 | 0.00 | 88 | 1017.9 |
| 20260902084518 | 77 | 248 | 0.9 | 5.2 | 0.00 | 0.06 | 0.00 | 88 | 1017.8 |
| 20260902083519 | 77 | 270 | 0.9 | 2.6 | 0.00 | 0.06 | 0.00 | 88 | 1017.7 |
| 20260902082518 | 77 | 225 | 1.7 | 3.5 | 0.00 | 0.06 | 0.00 | 88 | 1017.7 |
| 20260902081519 | 77 | 248 | 1.7 | 3.5 | 0.00 | 0.06 | 0.00 | 88 | 1017.7 |
| 20260902080519 | 77 | 225 | 1.7 | 5.2 | 0.00 | 0.06 | 0.00 | 88 | 1017.6 |
| 20260902075518 | 77 | 203 | 0.9 | 3.5 | 0.00 | 0.06 | 0.00 | 88 | 1017.6 |
| 20260902074518 | 77 | 203 | 1.7 | 4.3 | 0.00 | 0.06 | 0.00 | 88 | 1017.7 |
| 20260902073518 | 78 | 225 | 0.9 | 3.5 | 0.00 | 0.06 | 0.00 | 88 | 1017.6 |
| 20260902072518 | 78 | 225 | 1.7 | 5.2 | 0.00 | 0.06 | 0.00 | 88 | 1017.5 |
| 20260902071518 | 78 | 225 | 1.7 | 5.2 | 0.00 | 0.06 | 0.00 | 88 | 1017.4 |
| 20260902070518 | 78 | 270 | 1.7 | 5.2 | 0.00 | 0.06 | 0.00 | 89 | 1017.5 |
| 20260902065518 | 77 | 180 | 1.7 | 6.1 | 0.00 | 0.06 | 0.00 | 89 | 1017.4 |
| 20260902064518 | 77 | 203 | 0.9 | 3.5 | 0.00 | 0.06 | 0.00 | 89 | 1017.4 |
| 20260902063538 | 78 | 203 | 1.7 | 4.3 | 0.00 | 0.06 | 0.00 | 89 | 1017.5 |
| 20260902062518 | 78 | 248 | 0.9 | 2.6 | 0.00 | 0.06 | 0.00 | 89 | 1017.5 |
| 20260902061518 | 78 | 248 | 0.9 | 3.5 | 0.00 | 0.06 | 0.00 | 89 | 1017.5 |
| 20260902060519 | 78 | 270 | 0.9 | 4.3 | 0.00 | 0.06 | 0.00 | 88 | 1017.6 |
| 20260902055518 | 78 | 0.0 | 1.7 | 0.00 | 0.06 | 0.00 | 88 | 1017.6 | |
| 20260902054538 | 78 | 180 | 1.7 | 5.2 | 0.00 | 0.06 | 0.00 | 87 | 1017.5 |
| 20260902053519 | 79 | 0.0 | 1.7 | 0.00 | 0.06 | 0.00 | 87 | 1017.6 | |
| 20260902052520 | 79 | 225 | 1.7 | 4.3 | 0.00 | 0.06 | 0.00 | 86 | 1017.5 |
| 20260902051518 | 79 | 248 | 1.7 | 4.3 | 0.00 | 0.06 | 0.00 | 86 | 1017.5 |
| 20260902050538 | 79 | 248 | 0.9 | 3.5 | 0.00 | 0.06 | 0.00 | 86 | 1017.4 |
| 20260902045518 | 79 | 225 | 0.9 | 4.3 | 0.00 | 0.06 | 0.00 | 86 | 1017.3 |
| 20260902044518 | 80 | 248 | 1.7 | 7.0 | 0.00 | 0.06 | 0.00 | 85 | 1017.2 |
| 20260902043518 | 80 | 270 | 2.6 | 6.1 | 0.00 | 0.06 | 0.00 | 85 | 1017.1 |
| 20260902042518 | 80 | 180 | 1.7 | 6.1 | 0.00 | 0.06 | 0.00 | 85 | 1017.0 |
| 20260902041520 | 80 | 293 | 1.7 | 3.5 | 0.00 | 0.06 | 0.00 | 85 | 1017.0 |
| 20260902040519 | 80 | 225 | 1.7 | 3.5 | 0.00 | 0.06 | 0.00 | 85 | 1017.1 |
| 20260902035519 | 80 | 203 | 0.9 | 3.5 | 0.00 | 0.06 | 0.06 | 85 | 1017.1 |
| 20260902034518 | 80 | 248 | 0.9 | 2.6 | 0.00 | 0.06 | 0.06 | 84 | 1017.0 |
| 20260902033518 | 81 | 203 | 0.9 | 3.5 | 0.00 | 0.06 | 0.06 | 84 | 1017.1 |
| 20260902032527 | 81 | 270 | 0.9 | 3.5 | 0.00 | 0.06 | 0.06 | 84 | 1017.1 |
| 20260902031518 | 81 | 203 | 1.7 | 4.3 | 0.00 | 0.06 | 0.06 | 83 | 1017.2 |
| 20260902030518 | 81 | 203 | 1.7 | 4.3 | 0.00 | 0.06 | 0.06 | 83 | 1017.3 |
| 20260902025518 | 81 | 203 | 1.7 | 5.2 | 0.00 | 0.06 | 0.06 | 84 | 1017.3 |
| 20260902024519 | 81 | 180 | 2.6 | 6.1 | 0.00 | 0.06 | 0.06 | 84 | 1017.2 |
| 20260902023518 | 81 | 180 | 1.7 | 5.2 | 0.00 | 0.06 | 0.06 | 84 | 1017.1 |
| 20260902022558 | 81 | 203 | 2.6 | 7.0 | 0.00 | 0.06 | 0.06 | 84 | 1017.0 |
| 20260902021520 | 82 | 180 | 1.7 | 5.2 | 0.00 | 0.06 | 0.06 | 84 | 1016.9 |
| 20260902020540 | 82 | 203 | 2.6 | 6.1 | 0.00 | 0.06 | 0.06 | 84 | 1016.9 |
| 20260902015520 | 82 | 180 | 1.7 | 7.8 | 0.00 | 0.06 | 0.06 | 84 | 1017.0 |
| 20260902014518 | 82 | 203 | 0.9 | 3.5 | 0.00 | 0.06 | 0.06 | 84 | 1017.0 |
| 20260902013519 | 82 | 180 | 0.9 | 4.3 | 0.00 | 0.06 | 0.06 | 84 | 1017.0 |
| 20260902012520 | 82 | 158 | 1.7 | 4.3 | 0.00 | 0.06 | 0.06 | 84 | 1017.0 |